TimeCST,TemperatureF,Dew PointF,Humidity,Sea Level PressureIn,VisibilityMPH,Wind Direction,Wind SpeedMPH,Gust SpeedMPH,PrecipitationIn,Events,Conditions,WindDirDegrees,DateUTC
12:53 AM,23.0,14.0,68,30.25,10.0,Calm,Calm,-,N/A,,Clear,0,2012-12-12 06:53:00
1:53 AM,21.9,14.0,72,30.25,10.0,Calm,Calm,-,N/A,,Clear,0,2012-12-12 07:53:00
2:53 AM,21.0,14.0,74,30.25,10.0,Calm,Calm,-,N/A,,Clear,0,2012-12-12 08:53:00
3:53 AM,21.0,14.0,74,30.25,10.0,Calm,Calm,-,N/A,,Clear,0,2012-12-12 09:53:00
4:53 AM,19.9,12.9,74,30.26,10.0,Calm,Calm,-,N/A,,Clear,0,2012-12-12 10:53:00
5:53 AM,21.0,12.9,71,30.27,10.0,Calm,Calm,-,N/A,,Clear,0,2012-12-12 11:53:00
6:53 AM,19.0,12.0,74,30.29,10.0,Calm,Calm,-,N/A,,Clear,0,2012-12-12 12:53:00
7:53 AM,25.0,12.0,58,30.30,10.0,SSW,5.8,-,N/A,,Clear,200,2012-12-12 13:53:00
8:53 AM,32.0,15.1,50,30.31,10.0,South,4.6,-,N/A,,Clear,180,2012-12-12 14:53:00
9:53 AM,39.9,16.0,38,30.33,10.0,South,9.2,-,N/A,,Clear,190,2012-12-12 15:53:00
11:53 AM,48.0,12.9,24,30.29,10.0,SSW,16.1,23.0,N/A,,Clear,200,2012-12-12 17:53:00
12:53 PM,51.1,10.9,20,30.25,10.0,South,13.8,-,N/A,,Clear,180,2012-12-12 18:53:00
1:53 PM,53.1,8.1,16,30.22,10.0,South,10.4,20.7,N/A,,Clear,180,2012-12-12 19:53:00
2:53 PM,53.1,8.1,16,30.21,10.0,South,13.8,20.7,N/A,,Clear,190,2012-12-12 20:53:00
3:53 PM,53.1,7.0,16,30.20,10.0,South,13.8,19.6,N/A,,Clear,170,2012-12-12 21:53:00
4:53 PM,51.1,5.0,15,30.20,10.0,SSE,8.1,-,N/A,,Clear,160,2012-12-12 22:53:00
5:53 PM,48.0,6.1,18,30.20,10.0,South,6.9,-,N/A,,Clear,170,2012-12-12 23:53:00
6:53 PM,46.0,6.1,20,30.20,10.0,South,8.1,-,N/A,,Clear,170,2012-12-13 00:53:00
7:53 PM,44.1,8.1,23,30.22,10.0,South,9.2,-,N/A,,Clear,170,2012-12-13 01:53:00
8:53 PM,44.1,10.0,25,30.22,10.0,South,8.1,-,N/A,,Clear,170,2012-12-13 02:53:00
9:53 PM,42.1,12.0,29,30.23,10.0,South,8.1,-,N/A,,Clear,190,2012-12-13 03:53:00
10:53 PM,39.9,12.0,32,30.23,10.0,South,6.9,-,N/A,,Clear,170,2012-12-13 04:53:00
11:53 PM,39.9,12.0,32,30.23,10.0,South,6.9,-,N/A,,Clear,170,2012-12-13 05:53:00